METAR Formatted Surface Weather Observation
Issued by NWS

Home | Current Version | Previous Version | Text Only | Print | Product List | Glossary On
Versions: 1 2 3 4 5 6 7 8 9 10 11 12 13 14 15 16 17 18 19 20 21 22 23 24 25 26 27 28 29 30 31 32 33 34 35 36 37 38 39 40 41 42 43 44 45 46 47 48 49 50
000
SAUS45 KSLC 190420
MTRU16
METAR KU16 190358Z AUTO 04012KT 10SM TS BKN100 20/11
A2987 RMK AO2 TSE05B13 SLP743 T02000106
09/18/14 22:12:26  SPECI KU16 190412Z AUTO 03014KT 10SM BKN100 20/11 A2988
RMK AO2 TSE09



USA.gov is the U.S. government's official web portal to all federal, state and local government web resources and services.